You are not logged in, Click here to log in
臺北松山機場TSA / RCSS 臺北市松山區敦化北路340-9號
ICAO: RCSS Country: 臺北市松山區敦化北路340-9號
Latitude: 25.0676 Longitude: 121.553
Total Arrivals: 311 Total Departures: 278
Latest Arrival: AE5569 (RCKH-RCSS)Deven. Chu Latest Departure: B7885 (RCSS-RCBS)CHUANYI. Lin
Scenery:
METAR : RCSS 261300Z 09008KT 9000 FEW008 BKN035 BKN080 21/18 Q1021 NOSIG RMK A3015

臺北松山機場TSA